This demonstration page uses our WeatherBlox Daily Observations layout. Learn more.

Left ArrowRight Arrow

39.08367, -84.50855

Hourly Observations for January 11, 2017

Temp ( °F °C ) Dew Point ( °F °C ) Humidity (%) Winds ( mph kmh ) Pressure ( in mb ) Visibility ( mi km ) Precip ( " mm )
12:53 am 00:53 Clear 47 8.3 37 2.8 69 69 W 9 15 30.10 1019 10 16 0.00 0.00
1:53 am 01:53 Clear 42 5.6 35 1.7 76 76 W 6 9 30.14 1021 10 16 0.00 0.00
2:53 am 02:53 Clear 33 0.6 33 0.6 100 100 SSE 5 7 30.17 1022 10 16 0.00 0.00
3:53 am 03:53 Clear 32 0 32 0 100 100 WSW 5 7 30.18 1022 10 16 0.00 0.00
4:53 am 04:53 Clear with Mist and Fog 28 -2.2 28 -2.2 100 100 Calm 30.18 1022 5 8 0.00 0.00
5:45 am 05:45 Clear with Mist and Fog 28 -2.2 28 -2.2 100 100 Calm 30.21 1023 3 4 0.00 0.00
5:53 am 05:53 Clear with Mist and Fog 29 -1.7 29 -1.7 100 100 Calm 30.18 1022 4 6 0.00 0.00
6:15 am 06:15 Clear with Mist and Fog 29 -1.7 29 -1.7 100 100 Calm 30.21 1023 3 5 0.00 0.00
6:22 am 06:22 Clear with Mist and Fog 28 -2 28 -2 100 100 Calm 30.21 1023 2 2 0.00 0.00
6:32 am 06:32 Clear with Freezing Fog 28 -2 28 -2 100 100 Calm 30.21 1023 1 1 0.00 0.00
6:41 am 06:41 Mostly Cloudy with Mist and Fog 27 -2.8 27 -2.8 100 100 Calm 30.21 1023 1 1 0.00 0.00
6:44 am 06:44 Mostly Clear with Mist and Fog 27 -3 27 -3 100 100 Calm 30.21 1023 1 2 0.00 0.00
6:50 am 06:50 Mostly Cloudy with Freezing Fog 27 -3 27 -3 100 100 Calm 30.21 1023 1 1 0.00 0.00
6:53 am 06:53 Partly Cloudy with Mist and Fog 27 -2.8 27 -2.8 100 100 Calm 30.17 1022 4 6 0.00 0.00
7:53 am 07:53 Partly Cloudy with Patchy Fog 26 -3.3 26 -3.3 100 100 Calm 30.18 1022 6 10 0.00 0.00
8:44 am 08:44 Cloudy with Freezing Fog 30 -1 30 -1 100 100 Calm 30.18 1022 2 3 0.00 0.00
8:53 am 08:53 Mostly Cloudy with Mist and Fog 30 -1.1 30 -1.1 100 100 Calm 30.16 1021 1 2 0.00 0.00
9:26 am 09:26 Partly Cloudy with Mist and Fog 32 0 32 0 100 100 Calm 30.15 1021 3 5 0.00 0.00
9:33 am 09:33 Cloudy with Mist and Fog 33 0.6 33 0.6 100 100 Calm 30.15 1021 5 8 0.00 0.00
9:53 am 09:53 Cloudy with Mist and Fog 33 0.6 33 0.6 100 100 Calm 30.14 1021 5 8 0.00 0.00
10:48 am 10:48 Partly Cloudy 39 4 39 4 100 100 SW 3 6 30.12 1020 9 14 0.00 0.00
10:53 am 10:53 Mostly Sunny 41 5 40 4.4 96 96 SW 5 7 30.12 1020 10 16 0.00 0.00
11:53 am 11:53 Mostly Sunny 51 10.6 48 8.9 89 89 S 9 15 30.07 1018 10 16 0.00 0.00
12:53 pm 12:53 Cloudy 53 11.7 50 10 89 89 S 9 15 30.01 1016 10 16 0.00 0.00
1:08 pm 13:08 Cloudy with Light Rain 52 11 48 9 88 88 S 3 6 30.00 1016 5 8 0.00 0.00
1:53 pm 13:53 Cloudy with Light Rain 53 11.7 52 11.1 96 96 SSE 8 13 29.96 1015 4 6 0.05 1.27
2:27 pm 14:27 Cloudy with Rain 53 11.7 52 11.1 96 96 SSE 10 17 29.94 1014 3 4 0.03 0.76
2:53 pm 14:53 Cloudy with Heavy Rain 53 11.7 53 11.7 100 100 S 6 9 29.93 1014 2 3 0.16 4.06
3:53 pm 15:53 Cloudy with Light Rain 53 11.7 53 11.7 100 100 SSW 3 6 29.94 1014 2 3 0.26 6.60
3:56 pm 15:56 Cloudy with Light Rain 54 12 54 12 100 100 Calm 29.94 1014 3 4 0.00 0.00
3:58 pm 15:58 Cloudy with Light Rain 54 12 54 12 100 100 SSW 5 7 29.94 1014 2 3 0.00 0.00
4:09 pm 16:09 Cloudy with Light Rain 53 11.7 53 11.7 100 100 Calm 29.94 1014 3 5 0.04 1.02
4:51 pm 16:51 Cloudy 54 12 54 12 100 100 Calm 29.94 1014 9 14 0.04 1.02
4:53 pm 16:53 Cloudy 53 11.7 53 11.7 100 100 Calm 29.92 1013 9 14 0.04 1.02
5:40 pm 17:40 Cloudy 55 13 55 13 100 100 SSW 6 9 29.94 1014 10 16 0.00 0.00
5:53 pm 17:53 Cloudy 57 13.9 56 13.3 96 96 S 9 15 29.91 1013 10 16 0.00 0.00
6:53 pm 18:53 Cloudy 59 15 57 13.9 93 93 S 13 20 29.91 1013 10 16 0.00 0.00
7:53 pm 19:53 Cloudy 60 15.6 57 13.9 90 90 S 14 22 29.90 1012 10 16 0.00 0.00
8:49 pm 20:49 Cloudy 59 15 55 13 88 88 S 15 24 29.88 1012 10 16 0.00 0.00
8:53 pm 20:53 Mostly Cloudy 59 15 56 13.3 90 90 S 14 22 29.88 1012 10 16 0.00 0.00
9:53 pm 21:53 Cloudy 59 15 56 13.3 90 90 S 16 26 29.91 1013 10 16 0.00 0.00
10:53 pm 22:53 Cloudy 59 15 55 12.8 87 87 S 17 28 29.89 1012 10 16 0.00 0.00
11:53 pm 23:53 Mostly Cloudy 59 15 55 12.8 87 87 S 15 24 29.88 1012 10 16 0.00 0.00

Powered by AerisWeather